Temp
45 44 44 43 42 42 42 42 43 43 44 44 45 45 46 46 46 44 44 45 45 45
45 44 43 43 43 42 42 44 43 42 42 43 44 44 44 43 43 45 44 43 44 44
45 44 43 43 42 41 42 41 41 41 41 42 43 43 43 43 43 43 43 45 44 44
44 43 43 43 42 41 40 40 40 40 40 40 41 42 42 42 41 41 41 42 42 42
43 43 42 42 41 41 40 40 39 39 39 40 40 41 40 40 40 39 39 39 40 40
42 41 41 41 40 40 39 39 39 38 38 38 38 40 41 40 39 39 39 39 39 39
41 41 41 40 39 39 38 38 37 37 37 37 38 39 40 40 39 39 39 39 39 39
42 41 40 39 38 38 37 37 36 36 36 36 38 41 42 40 39 38 38 38 39 39
41 39 38 38 37 36 36 36 35 35 35 35 37 39 43 43 39 38 37 37 38 38
41 39 38 38 36 36 35 35 34 34 34 35 35 39 42 41 38 37 37 36 36 36
39 38 37 36 36 35 34 34 34 33 33 33 36 38 41 41 38 37 36 36 36 36
39 38 36 35 35 35 34 33 33 34 33 31 33 36 39 40 37 36 36 36 36 36
39 38 36 36 34 34 33 34 34 34 33 33 34 35 37 39 37 35 35 36 37 37
38 37 37 35 33 32 32 33 31 32 33 31 32 32 36 38 37 36 35 36 36 37
MSLP
1021.55 1021.52 1021.48 1021.50 1021.43 1021.24 1020.98 1020.68 1020.44 1020.12 1019.66 1019.20 1018.73 1018.22 1017.64 1017.23 1016.79 1016.39 1015.95 1015.46 1014.92 1014.56
1021.31 1021.44 1021.45 1021.40 1021.32 1021.16 1020.98 1020.66 1020.49 1020.26 1019.89 1019.43 1018.89 1018.44 1017.98 1017.59 1017.24 1016.83 1016.48 1016.09 1015.60 1015.31
1020.94 1021.00 1021.08 1021.12 1021.09 1021.03 1020.94 1020.79 1020.56 1020.22 1019.81 1019.38 1019.04 1018.66 1018.24 1017.87 1017.63 1017.21 1016.95 1016.59 1016.19 1015.82
1020.45 1020.68 1020.89 1020.90 1020.84 1020.77 1020.69 1020.59 1020.42 1020.26 1020.02 1019.66 1019.24 1018.91 1018.61 1018.27 1017.95 1017.63 1017.40 1017.17 1016.87 1016.48
1020.13 1020.44 1020.55 1020.53 1020.56 1020.55 1020.55 1020.52 1020.43 1020.18 1019.91 1019.75 1019.51 1019.14 1018.79 1018.54 1018.35 1017.98 1017.65 1017.55 1017.34 1017.12
1019.89 1020.10 1020.19 1020.34 1020.41 1020.43 1020.34 1020.19 1020.22 1020.26 1020.04 1019.72 1019.47 1019.23 1018.94 1018.69 1018.48 1018.33 1018.03 1017.77 1017.52 1017.26
1018.99 1019.12 1019.27 1019.55 1019.83 1019.94 1020.04 1020.13 1020.04 1019.92 1019.90 1019.79 1019.46 1019.11 1018.85 1018.64 1018.49 1018.34 1018.17 1017.87 1017.71 1017.48
1017.84 1018.33 1018.81 1019.26 1019.44 1019.61 1019.71 1019.72 1019.68 1019.70 1019.60 1019.48 1019.33 1018.96 1018.57 1018.45 1018.39 1018.30 1018.20 1017.96 1017.61 1017.38
1017.31 1017.82 1018.19 1018.52 1018.86 1019.22 1019.45 1019.57 1019.57 1019.30 1019.31 1019.18 1018.96 1018.73 1018.31 1018.07 1018.31 1018.28 1018.14 1017.97 1017.70 1017.41
1016.30 1016.89 1017.46 1017.95 1018.41 1018.70 1018.92 1019.11 1019.27 1019.10 1018.92 1018.67 1018.58 1018.41 1018.10 1018.02 1018.13 1018.14 1018.10 1017.91 1017.69 1017.41
1015.32 1016.01 1016.79 1017.38 1017.72 1018.08 1018.39 1018.64 1018.78 1018.83 1018.88 1018.80 1018.14 1017.73 1017.75 1017.65 1017.91 1017.97 1017.88 1017.84 1017.55 1017.30
1014.32 1015.07 1015.84 1016.48 1017.01 1017.51 1017.92 1018.13 1018.38 1018.39 1018.46 1018.39 1018.22 1017.80 1017.39 1017.49 1017.44 1017.67 1017.57 1017.45 1017.31 1017.03
1013.69 1014.26 1015.06 1015.68 1016.29 1017.03 1017.47 1017.37 1017.89 1018.00 1017.99 1018.02 1017.65 1017.90 1017.26 1017.05 1017.18 1017.19 1017.27 1017.15 1016.92 1016.74
1013.13 1013.58 1014.15 1015.00 1015.87 1016.35 1016.98 1017.15 1017.59 1017.72 1017.48 1017.67 1017.49 1017.30 1017.36 1016.83 1016.66 1016.78 1016.73 1016.54 1016.39 1016.35
Wind_Speed
2 0 1 2 3 3 3 5 8 8 8 9 9 9 9 7 8 8 7 9 7 5
3 2 2 1 2 2 4 5 7 7 8 7 8 9 9 7 9 9 8 7 7 6
5 4 3 2 2 3 4 5 6 6 6 6 7 8 8 7 9 9 7 7 9 8
6 5 4 3 2 2 3 4 4 5 6 6 6 7 7 7 8 8 9 10 10 10
6 5 5 4 3 2 3 4 4 4 5 6 6 6 6 7 7 7 8 8 8 9
7 7 6 5 4 3 3 3 3 3 4 5 5 5 5 5 6 6 6 7 7 7
10 10 8 7 6 5 4 3 2 2 4 4 5 4 4 3 4 5 5 5 5 5
10 9 8 7 6 5 4 3 3 2 2 4 4 3 5 4 3 3 5 5 5 6
10 9 9 8 7 6 5 4 4 3 3 3 3 6 8 5 1 3 4 5 6 6
11 10 10 9 8 7 6 4 5 4 4 4 4 7 7 1 1 3 4 6 6 6
11 11 9 9 9 7 5 6 5 5 4 5 4 5 6 4 1 4 5 6 6 6
12 11 11 10 9 7 5 5 6 4 5 5 6 7 6 5 2 4 6 6 6 6
11 11 11 10 9 5 4 6 5 5 5 7 6 8 7 6 3 5 5 6 6 9
11 11 10 8 6 6 7 5 4 6 4 6 6 6 9 8 4 4 5 6 6 6
Wind_Direction
233 233 308 339 340 336 344 346 354 353 355 358 1 0 360 359 359 358 357 1 4 34
212 218 247 280 309 327 344 346 352 351 353 356 6 9 8 11 8 6 3 5 12 12
217 212 205 217 301 337 337 345 345 348 354 355 4 8 14 13 9 13 13 15 17 18
213 207 203 217 239 300 308 336 346 342 344 352 356 5 10 13 17 17 11 11 11 11
212 206 215 220 218 236 305 324 329 339 344 350 350 353 2 8 8 14 17 14 11 6
211 208 218 219 217 224 245 271 312 331 341 339 334 335 344 352 4 6 11 8 8 8
207 207 207 205 204 211 216 245 280 318 320 321 318 311 317 320 345 353 355 3 4 2
203 203 197 197 204 210 215 219 218 260 291 310 307 306 314 271 291 329 334 341 349 350
193 191 195 194 194 200 219 229 230 214 243 283 288 297 306 354 285 311 317 321 326 329
189 192 192 190 189 202 207 210 235 242 235 249 265 286 311 72 33 325 319 316 318 320
188 191 183 184 194 196 196 209 216 229 245 268 266 275 297 306 302 309 307 303 305 303
188 183 179 188 191 193 200 203 213 215 222 236 263 263 271 290 250 286 295 298 298 290
184 180 183 186 182 176 199 203 208 228 227 238 247 267 267 279 262 280 286 289 284 289
184 181 180 168 159 174 193 195 212 241 234 244 244 259 271 271 272 269 274 290 299 296